Theta_e
365 366 366 366 367 367 367 368 367 366 365 365 364 363 362 361 360 358 360 358 358 358 355 354 352 351 349 348 346 346 347 346 346 347 346 346 347 345 344 344 342 342 344 343 341 343 344 342 343 345 346 344 343 343 345 348 345 343 341 340 339 340 338 335 329 329 334 339 339 337 338 340 336 341 338 340 341 343 341 340 341 339 339 339 339
365 365 366 367 366 367 366 367 367 366 364 364 363 363 362 362 362 360 358 359 359 356 355 354 353 351 349 347 347 347 348 348 346 346 345 345 345 344 344 345 342 341 340 339 342 340 341 342 343 344 346 344 343 342 342 340 338 337 345 341 340 339 342 335 334 331 327 333 335 340 338 339 333 340 337 337 337 342 341 340 340 338 337 337 337
364 367 367 367 366 367 367 368 367 366 363 362 359 360 362 363 363 360 358 358 359 357 355 353 353 352 348 347 347 348 348 347 347 346 345 345 343 343 343 344 343 341 340 340 340 341 340 341 340 342 343 341 341 341 341 341 343 345 343 342 341 342 343 341 336 331 329 330 334 333 335 338 335 336 339 341 340 340 337 337 337 338 338 337 336
363 367 367 366 366 367 367 368 365 363 361 360 358 359 359 361 362 361 358 357 358 358 357 354 353 351 347 346 347 348 348 347 346 346 345 345 344 343 342 342 342 341 340 340 340 340 339 339 339 340 341 341 342 342 341 342 343 343 342 341 341 340 342 342 339 335 334 331 333 334 336 335 336 338 339 339 337 336 337 337 338 337 337 337 335
361 364 364 363 363 366 365 366 366 364 363 361 360 359 360 361 361 359 358 355 358 358 356 354 353 350 346 346 346 347 347 347 347 345 346 345 344 343 343 343 343 341 341 341 343 340 339 338 340 341 342 341 343 341 341 340 339 339 339 341 342 341 340 339 338 337 334 332 332 335 337 336 337 338 340 335 334 334 336 336 336 335 336 336 336
358 362 364 363 364 364 363 364 365 364 363 360 360 359 360 361 361 360 359 357 359 357 355 352 351 350 347 347 346 347 347 347 347 345 344 344 344 343 344 345 343 343 342 342 342 342 341 340 341 342 341 340 339 340 341 340 341 340 339 339 340 341 341 341 341 340 337 334 333 332 335 334 333 335 336 335 332 330 330 332 334 335 336 335 334
355 359 363 363 364 363 363 364 365 365 364 363 361 360 359 359 360 360 359 358 358 356 354 352 350 350 348 347 347 347 348 347 347 346 346 345 344 343 343 343 343 342 342 341 340 341 341 341 342 342 341 341 340 340 341 341 339 338 340 340 343 343 341 337 337 336 334 333 332 333 332 334 333 330 334 335 333 331 328 328 328 334 335 334 333
353 357 362 363 364 364 366 365 364 366 366 366 363 361 360 358 359 362 360 359 357 355 354 352 350 349 347 347 348 348 347 347 347 347 347 346 344 343 343 342 341 341 341 341 339 338 339 339 338 340 340 341 340 341 341 339 339 337 340 345 343 338 336 336 336 335 333 332 331 330 331 330 332 333 334 333 330 330 332 330 325 325 328 332 331
353 355 361 363 364 364 366 366 365 366 366 367 364 362 361 360 359 362 362 360 357 355 355 353 349 349 348 347 349 347 345 345 346 346 346 344 343 342 343 342 341 340 340 339 339 339 339 339 338 338 341 347 346 344 343 342 338 338 342 343 341 339 336 334 334 333 333 332 330 331 329 329 329 328 327 328 327 326 329 329 326 328 329 328 331
353 354 360 364 366 366 368 367 366 367 366 366 365 363 361 360 359 361 361 360 359 357 356 353 350 348 348 348 348 346 345 346 340 333 338 343 341 341 342 342 341 340 339 339 338 339 339 338 339 344 347 347 346 346 342 342 341 342 345 342 340 337 335 333 332 332 331 329 327 327 326 325 325 326 326 326 328 328 327 329 325 327 327 327 328
354 354 360 365 367 368 369 369 368 367 367 366 365 364 362 361 360 361 361 360 358 357 357 352 349 349 350 347 343 344 346 345 330 328 331 334 340 341 341 342 343 342 340 339 338 339 339 340 340 343 348 348 347 347 344 341 341 340 337 336 338 337 334 333 331 331 329 327 328 326 324 324 326 328 327 326 327 327 327 327 327 326 324 321 319
354 355 361 367 369 369 369 370 370 369 369 367 366 365 364 363 362 361 360 360 359 358 356 352 350 351 350 345 340 343 346 334 325 326 328 329 335 342 342 342 343 342 340 339 340 340 339 339 339 344 343 343 343 343 343 341 339 337 335 334 333 333 333 333 332 330 328 326 325 325 325 325 326 327 327 327 328 327 327 326 325 324 322 320 320
358 358 364 368 370 370 371 372 371 371 370 368 367 366 366 365 364 363 362 362 361 358 356 353 351 352 350 347 343 346 347 328 324 324 326 326 329 337 341 342 341 340 340 341 340 340 341 340 342 345 343 347 346 345 346 344 339 334 333 334 333 331 327 326 327 331 329 327 325 325 326 327 327 328 331 331 330 325 325 323 323 322 321 319 319
361 360 366 369 371 372 373 372 371 371 371 370 368 367 366 364 363 363 361 360 359 356 354 353 353 352 350 348 347 345 342 325 323 321 323 323 326 330 344 343 341 340 341 341 340 339 341 346 342 342 344 342 343 343 343 343 342 342 340 338 338 337 331 325 323 322 326 327 326 326 329 330 327 330 333 331 327 325 322 319 321 319 319 319 321
362 363 367 371 373 373 373 372 371 371 370 369 367 366 365 364 363 360 358 356 355 354 352 351 351 351 348 348 347 343 340 321 320 319 320 320 323 327 339 342 343 342 341 340 338 338 346 345 345 345 344 343 343 343 342 341 341 341 341 339 338 337 335 335 334 332 330 328 328 328 329 332 332 331 332 333 329 326 324 321 321 321 321 323 322
365 366 369 372 373 373 371 370 370 369 367 367 365 364 364 364 361 361 359 357 356 355 354 351 350 349 348 346 343 340 336 319 319 318 318 319 323 333 337 339 339 339 340 342 341 345 345 345 343 345 345 343 342 337 341 342 340 339 338 338 336 336 335 335 330 331 336 335 333 332 332 333 326 329 328 324 324 325 325 324 323 322 320 317 316
366 368 371 373 372 371 371 369 367 366 365 363 362 361 361 361 361 361 357 355 354 354 353 351 351 347 346 345 342 339 335 321 317 316 317 318 321 333 334 336 337 336 336 340 341 343 346 346 344 344 343 343 337 326 332 342 338 337 337 336 336 334 332 334 328 324 322 320 318 318 317 317 316 315 314 314 319 322 322 320 318 318 317 316 316
368 370 372 373 371 371 371 369 367 365 363 361 359 359 358 359 359 360 355 351 349 351 351 351 350 348 345 342 340 338 336 325 315 314 315 316 323 332 333 335 335 335 336 339 340 343 345 348 345 342 342 342 329 323 326 335 335 335 335 334 332 331 331 331 330 335 323 318 317 318 318 318 317 316 315 314 314 316 320 317 318 318 316 317 315
370 371 371 372 372 370 369 369 367 364 362 360 358 356 355 356 356 357 354 353 351 352 351 349 348 347 343 341 336 337 338 331 313 314 314 314 323 334 336 335 333 334 336 337 340 344 341 342 344 342 339 338 323 321 322 331 335 334 334 332 330 328 329 332 332 330 331 329 331 332 330 326 326 326 327 321 317 319 321 321 322 320 317 317 318
372 372 371 372 371 369 368 367 366 364 362 360 359 358 356 354 354 352 352 352 351 350 350 348 346 344 343 342 342 339 338 342 323 313 312 312 318 335 337 335 334 335 336 338 335 335 338 337 333 328 327 324 316 315 317 321 333 335 334 330 327 326 327 326 330 329 328 328 327 327 327 327 326 326 326 327 330 331 326 325 324 323 321 319 320
373 372 372 370 369 368 368 367 366 365 362 360 357 356 354 353 352 352 349 349 351 353 349 347 344 344 341 342 341 339 339 342 326 311 310 311 314 323 338 338 338 338 336 332 333 333 332 335 337 326 320 317 311 309 310 313 320 331 332 329 328 321 318 325 327 327 326 327 326 326 325 326 325 324 322 323 322 323 324 324 326 323 320 314 312
373 373 371 369 367 366 365 366 366 364 363 361 358 356 355 353 352 350 348 350 350 347 346 345 343 342 344 347 344 345 342 338 331 313 312 310 312 316 336 342 337 335 333 334 332 331 334 334 331 328 317 313 309 306 305 308 311 323 322 307 306 312 323 323 324 324 324 324 323 322 321 321 320 320 320 321 320 321 319 318 318 318 317 315 313
372 371 369 366 365 364 365 364 363 363 362 360 357 354 353 351 351 351 350 346 345 343 343 342 341 342 343 346 343 343 343 341 325 323 312 310 310 312 320 330 325 336 332 332 334 335 332 331 334 318 310 307 304 303 304 306 311 317 304 306 307 309 319 322 323 324 324 322 321 320 321 320 320 320 320 320 318 321 319 318 318 317 317 317 317
370 367 364 365 364 362 363 363 363 362 360 359 356 353 351 352 352 350 345 344 342 342 342 342 340 337 337 341 340 341 346 343 325 320 318 310 309 310 315 320 322 335 337 335 333 335 336 337 327 307 303 299 300 303 305 308 315 301 305 308 310 316 320 322 321 322 322 320 320 320 321 322 321 321 321 320 319 320 319 318 317 317 317 317 317
365 362 362 362 362 362 362 361 361 359 358 357 353 351 351 350 347 346 343 342 342 340 340 339 338 338 339 339 341 343 340 335 329 321 317 313 313 312 313 316 317 315 330 336 338 335 318 308 302 302 301 300 303 305 305 306 305 305 306 308 317 320 322 321 322 322 322 320 320 321 318 319 319 318 323 322 320 318 318 318 318 317 317 317 317
361 360 360 360 359 358 358 357 358 356 355 355 352 351 349 346 344 343 343 341 341 340 340 338 338 338 339 339 341 339 337 334 329 325 320 318 318 314 314 315 320 321 321 316 309 307 306 305 304 304 305 306 308 311 317 316 308 309 310 312 319 320 321 321 321 321 320 320 319 318 318 317 317 322 323 320 318 316 316 316 316 314 314 314 312
358 358 357 356 357 357 355 353 353 352 353 352 350 350 347 345 343 342 342 340 340 339 339 339 339 338 339 341 340 338 336 332 329 328 328 327 327 321 322 321 318 321 324 320 316 314 311 313 312 311 312 311 316 321 323 320 314 313 317 317 319 321 322 323 322 320 320 318 318 317 318 320 324 321 319 318 316 317 317 315 312 311 312 312 311
356 355 354 353 352 353 352 352 350 348 348 347 347 347 345 344 342 342 341 341 339 339 339 339 339 339 338 339 338 337 335 332 329 328 330 330 330 328 328 328 327 329 327 323 323 320 319 316 314 320 320 318 319 321 322 323 323 321 321 321 321 322 324 325 324 322 321 320 319 321 320 324 319 317 316 314 313 313 315 314 313 312 313 311 308
353 352 351 350 349 350 349 348 346 337 329 321 313 310 318 342 341 329 322 322 328 341 341 342 341 339 339 339 337 335 335 332 332 322 332 321 329 330 329 329 328 329 326 318 325 324 322 320 320 320 320 320 320 320 321 321 322 323 324 324 323 324 324 322 320 321 324 323 319 319 320 318 316 315 312 311 313 313 314 314 315 312 311 310 308
349 348 348 347 346 345 345 344 342 336 329 324 321 317 309 299 310 331 324 313 304 299 311 338 339 340 339 341 341 337 335 337 317 311 308 308 310 313 315 314 314 322 317 314 324 323 322 321 321 321 322 322 323 322 321 323 322 321 322 320 321 320 321 320 319 323 322 322 319 316 316 315 313 312 312 310 310 311 313 311 309 311 311 310 308
347 346 345 344 343 344 343 343 342 339 333 331 328 325 321 315 299 296 304 306 301 297 296 296 308 326 338 331 317 307 309 304 303 302 301 300 300 301 303 304 306 308 308 318 324 324 323 323 324 324 324 322 321 320 325 324 323 323 323 324 323 321 319 319 316 317 317 315 319 318 316 314 312 312 309 308 309 310 309 310 312 312 309 308 307
347 345 344 344 344 344 343 344 343 339 335 334 332 328 324 321 318 302 296 299 299 296 295 295 298 309 315 319 320 317 305 300 300 300 300 299 298 297 297 301 303 304 303 311 326 325 326 326 324 323 323 320 320 324 321 320 325 323 323 323 323 322 320 315 317 316 317 316 317 314 314 313 311 308 308 308 310 308 308 308 309 308 308 308 308
344 343 342 343 344 344 342 343 342 340 338 337 335 333 329 325 321 319 315 299 296 295 295 295 295 295 300 307 311 310 306 300 298 298 298 297 296 296 296 297 300 302 308 322 325 323 325 324 322 324 321 320 323 323 323 319 321 323 320 320 319 322 320 316 318 320 315 316 316 314 312 311 310 310 310 309 307 306 307 307 308 308 308 307 307
345 342 342 342 344 343 342 342 340 340 340 340 339 337 334 331 327 323 321 320 320 310 301 295 295 298 295 295 299 299 297 297 297 296 295 296 296 298 300 303 294 298 311 327 322 322 325 323 320 320 322 324 321 319 320 321 320 319 318 318 321 319 319 325 318 317 313 311 309 309 309 307 308 308 307 307 307 308 307 306 307 306 306 306 304
346 347 348 346 343 342 341 342 341 339 337 338 338 337 337 336 331 327 325 323 323 323 322 316 301 293 302 299 294 295 295 296 296 295 295 296 297 297 303 321 322 321 324 323 325 324 322 321 322 323 325 321 319 318 321 322 321 323 321 322 320 317 318 315 312 312 311 310 311 312 310 306 306 307 307 308 307 306 306 306 305 306 305 305 305
343 342 343 343 343 343 343 343 342 340 338 338 338 337 336 335 332 331 328 329 327 325 323 316 309 302 296 292 292 293 293 294 294 295 295 296 297 304 323 323 321 320 320 321 321 321 323 323 321 324 324 322 322 323 322 322 323 324 324 321 319 317 316 317 313 311 311 309 307 307 304 305 307 308 307 307 307 306 305 305 305 305 306 305 306
340 340 340 343 342 342 344 343 342 341 335 336 338 337 335 334 334 334 332 330 328 326 320 315 313 311 308 305 298 293 292 293 293 293 294 295 297 316 325 322 321 320 319 320 320 321 320 323 327 323 323 323 322 322 324 321 324 322 319 320 317 316 314 313 314 314 311 307 306 305 305 304 307 309 307 305 305 305 304 305 305 305 305 306 306
342 340 340 342 342 342 342 341 338 333 338 339 341 339 335 334 333 332 330 329 328 324 321 320 319 320 317 311 309 307 301 296 296 298 300 301 309 318 323 324 324 323 321 322 322 324 324 325 324 326 323 323 321 323 323 321 323 317 318 323 320 319 312 315 312 315 314 310 306 306 306 309 312 308 307 306 304 304 304 305 304 304 305 306 305
340 329 328 331 333 340 338 336 336 338 337 337 337 336 334 334 333 332 332 330 329 326 324 323 323 322 318 314 312 308 310 314 316 316 316 317 318 320 320 322 324 326 326 326 323 324 326 324 323 324 325 323 324 324 321 322 321 320 321 317 313 317 311 313 311 313 310 308 309 312 313 310 309 310 309 305 304 304 304 304 304 304 304 304 304
336 335 331 330 334 335 338 337 336 337 336 335 334 334 333 332 331 331 330 330 330 327 326 324 324 322 320 318 315 316 319 319 319 319 319 318 318 319 320 320 322 323 326 324 321 322 322 324 323 323 323 323 322 324 321 322 318 320 318 319 311 308 309 310 309 311 311 314 313 313 312 310 310 309 307 306 305 305 304 304 305 305 305 305 305
335 335 335 330 330 334 336 334 335 336 335 336 333 332 332 335 334 331 331 330 330 328 326 326 326 323 320 316 308 310 320 319 319 319 319 318 318 318 318 320 321 322 324 324 328 325 326 324 322 323 323 320 321 322 322 320 321 316 312 315 310 311 310 309 309 307 307 309 313 313 312 312 310 306 304 305 304 304 306 306 305 305 305 305 304
333 331 333 334 333 334 332 332 333 334 337 335 335 332 332 331 330 331 331 330 329 329 327 327 327 323 313 305 303 302 320 321 321 321 320 319 319 320 320 322 323 327 325 323 325 324 324 324 324 323 325 323 321 322 318 318 315 312 315 308 313 312 306 305 309 313 313 311 311 312 313 308 308 307 306 304 305 306 305 304 304 305 305 305 304
333 332 335 334 335 333 331 333 334 332 333 331 332 331 331 332 331 332 333 331 331 328 329 328 327 323 316 306 306 303 316 322 323 323 321 321 321 321 322 322 323 328 330 328 328 327 327 324 324 323 320 320 322 319 317 317 315 311 307 309 307 307 306 305 307 309 311 312 312 308 307 306 306 306 306 306 306 306 304 304 305 305 305 305 304
334 332 333 333 334 334 334 333 332 331 331 332 332 330 331 331 330 330 328 328 327 326 327 327 326 322 318 311 308 310 316 319 322 324 325 323 323 322 323 324 324 325 325 328 327 328 325 323 322 324 322 321 322 321 319 314 317 311 310 307 307 305 305 306 306 307 308 307 306 306 306 306 307 306 305 306 306 304 304 305 305 305 304 304 304
332 331 331 330 330 331 330 334 329 331 330 330 329 330 330 329 327 326 325 325 325 326 324 327 325 321 319 317 316 316 317 319 321 323 324 324 323 323 324 324 325 326 325 324 323 325 326 325 323 323 321 321 321 322 322 321 312 310 310 307 306 304 308 310 310 308 307 308 306 306 305 305 305 305 305 305 305 305 304 305 304 306 304 304 303
329 328 327 328 328 329 330 330 331 331 329 328 326 326 327 327 325 325 324 327 325 328 325 326 325 323 321 320 320 320 321 322 322 323 323 323 323 325 324 324 323 324 323 325 324 323 323 321 322 321 321 321 318 315 314 320 312 310 310 312 309 307 306 307 308 308 306 306 305 305 305 305 305 304 305 306 306 305 305 306 306 306 304 303 303
331 329 327 328 328 329 330 331 328 327 326 324 324 323 323 323 325 326 325 324 323 325 323 323 324 323 324 324 323 323 322 321 322 322 324 326 327 326 324 323 323 322 322 325 326 322 321 320 322 321 320 316 318 316 314 317 311 309 308 308 308 307 306 306 305 304 303 304 305 304 303 302 302 303 305 307 305 305 305 305 305 305 304 303 303
328 328 328 328 328 327 325 325 325 325 324 324 325 324 322 322 323 322 322 320 321 320 320 321 321 322 322 322 322 322 322 322 323 323 324 323 324 324 325 326 323 322 323 325 324 322 322 320 319 320 321 319 317 316 314 311 311 316 312 304 302 299 299 300 305 304 300 300 300 300 300 299 301 303 305 306 305 305 305 304 304 303 303 303 304
326 324 324 325 324 324 323 323 324 322 321 322 322 322 321 321 320 320 319 319 318 317 318 319 319 318 319 321 321 322 322 321 322 322 321 323 326 326 325 324 323 323 321 320 320 320 322 321 320 321 319 323 318 318 318 312 311 312 304 298 296 291 289 293 297 297 292 297 299 299 300 301 303 305 305 306 306 306 305 305 303 303 303 304 304
325 325 324 324 323 323 324 324 321 321 322 321 320 318 317 319 318 318 319 318 318 318 318 318 318 317 317 317 320 321 318 320 321 321 320 322 323 323 323 323 322 321 320 321 319 318 318 319 319 319 318 318 316 317 312 311 312 306 299 296 289 287 287 287 287 289 297 299 300 300 300 300 301 303 305 306 307 306 305 302 302 302 303 304 304
324 325 323 323 323 322 323 321 321 323 320 320 318 317 316 318 317 318 318 317 316 317 315 316 315 314 316 316 317 323 319 320 321 322 322 321 322 322 322 321 321 321 320 320 321 320 318 318 316 317 316 315 316 313 317 317 308 301 294 290 288 287 288 293 297 289 289 292 296 296 297 299 301 303 304 306 306 305 304 303 303 303 304 303 304
Wind_Speed
18 16 15 14 15 15 15 14 15 13 13 12 12 12 12 11 12 11 10 10 10 10 11 10 10 10 11 10 10 10 10 9 9 7 7 7 5 5 6 7 7 7 6 5 5 4 4 5 4 4 4 4 4 3 2 2 3 5 5 4 4 4 4 3 3 5 4 3 3 3 3 3 3 3 4 3 3 3 4 4 5 6 6 6 6
17 16 15 15 16 16 17 15 14 13 14 13 13 13 13 11 11 10 12 12 11 12 12 11 11 12 11 11 10 11 11 10 11 9 8 8 7 6 7 8 9 9 9 8 6 5 3 4 4 3 3 3 4 3 3 4 4 5 3 4 4 3 3 2 3 3 6 4 4 2 4 3 5 2 3 3 4 2 3 3 3 5 5 5 6
18 15 15 15 17 16 16 15 15 15 16 14 17 16 14 12 12 13 12 12 12 12 12 12 12 12 11 11 11 12 12 11 10 10 10 9 9 8 8 7 8 9 9 9 8 6 6 5 6 5 4 4 5 4 4 3 2 1 2 1 1 1 2 2 2 3 4 5 4 5 4 3 4 5 4 3 4 4 4 4 5 4 5 6 6
19 17 16 17 17 16 16 15 19 19 19 17 19 18 16 15 13 13 13 11 12 12 13 12 12 13 13 12 12 11 12 11 10 10 11 11 10 10 9 8 6 5 6 7 7 7 7 7 6 6 5 5 4 4 4 3 3 2 2 2 3 3 2 2 3 3 3 5 4 4 3 5 5 5 4 4 5 5 5 4 5 6 5 5 6
19 19 20 21 20 17 19 18 18 19 19 18 20 19 18 17 14 15 14 13 13 12 12 12 12 13 13 14 13 12 13 12 12 11 10 10 11 10 9 7 7 7 6 6 7 7 7 7 7 6 4 3 2 3 4 4 4 4 3 3 3 3 3 3 3 3 4 5 5 4 4 4 5 5 4 5 5 5 4 5 4 5 6 5 5
20 20 20 20 18 19 19 17 19 21 20 19 20 19 18 16 15 15 15 14 14 14 14 13 13 14 14 14 14 13 12 13 12 11 11 11 11 10 9 8 7 8 8 8 7 7 7 8 7 6 5 6 5 4 3 4 3 3 4 4 3 3 3 3 3 3 4 5 5 5 3 5 4 4 4 5 6 5 5 5 5 5 5 5 6
17 19 20 21 17 19 18 18 17 19 17 16 16 16 17 18 18 17 15 15 15 15 14 15 13 14 14 13 14 14 13 13 12 11 11 10 11 10 10 9 8 7 7 8 8 7 7 6 6 6 5 5 4 4 4 3 3 4 4 3 1 0 1 3 4 5 5 5 5 5 5 4 4 6 5 5 6 6 6 6 5 4 4 5 5
16 17 17 17 16 18 17 17 17 17 15 14 14 15 16 15 14 13 13 15 16 16 15 15 13 13 14 13 13 12 12 12 12 12 11 11 11 11 10 10 10 8 8 9 9 9 8 8 9 7 7 6 6 5 5 5 5 5 4 2 2 3 4 5 5 4 5 5 5 5 4 5 4 4 4 4 5 5 4 4 5 6 6 3 4
16 17 17 16 16 16 16 15 15 15 14 14 14 14 14 13 12 12 13 13 12 13 14 14 13 13 13 13 13 12 12 12 11 12 12 12 10 11 11 10 10 9 9 9 9 9 8 9 9 9 10 12 13 10 8 7 5 5 3 3 2 2 3 4 5 6 5 5 6 5 5 5 4 5 5 5 5 6 4 5 5 5 4 4 4
15 16 17 16 15 15 15 13 14 14 14 15 15 14 13 13 12 12 13 13 11 11 11 12 13 14 14 13 12 12 11 10 12 18 15 11 11 10 10 10 9 9 10 9 9 9 9 9 8 11 6 10 13 14 11 8 5 3 3 2 2 3 3 5 6 6 5 6 6 5 6 6 5 4 5 6 6 6 6 4 5 5 5 6 5
16 16 16 16 15 15 14 14 13 13 14 14 14 14 13 12 11 10 11 12 12 10 10 13 13 12 13 13 14 12 11 10 16 16 17 17 12 10 10 10 10 10 9 9 8 9 9 8 7 9 9 8 7 9 9 7 5 4 5 7 6 4 4 5 6 5 5 5 5 5 7 7 5 4 5 6 4 4 5 5 6 6 5 6 7
17 16 14 15 15 16 15 14 13 13 13 13 13 12 11 10 9 8 8 10 10 10 10 11 12 12 11 12 14 12 12 12 17 18 17 16 13 9 9 9 9 9 9 8 8 7 7 7 7 5 7 8 7 7 8 9 9 8 7 7 8 9 8 7 6 6 6 6 6 7 7 6 5 4 5 4 3 5 5 5 6 6 6 6 6
15 15 14 16 16 15 14 14 13 12 12 12 11 10 10 9 9 8 8 8 9 9 9 10 11 11 11 12 13 13 11 14 18 17 16 15 14 11 8 8 9 9 9 9 9 8 6 7 5 5 5 10 7 5 5 6 6 8 8 9 9 9 10 11 11 9 5 6 7 7 7 5 4 3 3 3 3 6 4 5 5 6 7 8 8
15 16 14 15 15 14 13 13 12 11 10 10 9 9 9 9 9 7 6 6 8 8 9 10 10 11 11 12 12 11 10 13 18 17 16 17 16 11 6 8 8 9 9 9 9 8 8 6 6 6 6 6 6 7 6 5 4 5 5 5 5 7 9 11 12 14 12 9 8 8 7 5 7 5 4 5 5 4 3 5 5 7 8 9 8
15 14 14 13 13 13 13 12 11 11 10 10 9 9 9 8 8 7 7 8 8 8 8 9 9 10 11 10 10 10 8 17 18 19 17 16 15 11 8 8 6 6 7 8 9 9 9 8 7 7 7 7 6 6 5 5 5 4 5 5 5 5 6 7 7 6 7 7 9 10 9 8 8 8 4 1 2 3 4 6 7 8 9 9 8
14 14 13 13 13 13 13 12 12 11 11 10 10 10 9 9 9 8 7 7 6 7 7 8 9 10 9 10 10 11 8 19 17 17 17 16 18 9 9 10 8 6 5 5 6 5 8 7 7 7 6 6 7 10 8 5 5 5 7 6 6 6 7 7 9 9 6 5 6 8 8 6 3 2 2 4 4 6 6 6 6 7 7 7 8
14 14 13 13 13 14 14 14 13 12 11 11 10 9 9 9 9 8 8 8 8 8 8 9 6 8 9 9 9 8 7 15 18 19 19 19 13 9 11 10 9 8 8 6 6 5 9 8 8 6 5 3 5 11 10 7 5 6 7 7 6 6 5 4 7 10 10 11 10 9 10 10 5 4 6 10 9 8 6 5 8 8 7 8 8
13 13 14 14 13 13 13 13 13 12 11 11 11 9 8 7 7 7 8 9 11 11 8 7 6 7 8 8 9 9 8 14 20 20 18 19 16 11 9 9 9 10 9 9 8 6 9 15 9 7 8 7 9 12 11 9 6 6 6 7 6 6 5 4 5 3 6 7 7 9 8 7 7 10 11 13 16 11 6 9 11 8 8 7 9
13 14 14 14 13 12 12 12 12 13 11 10 10 11 10 8 7 7 8 8 7 5 6 6 6 6 9 9 9 10 9 12 18 17 18 18 15 10 9 9 10 11 10 10 9 5 3 6 11 7 5 2 9 12 9 7 5 5 5 4 4 4 3 2 2 2 2 2 2 3 4 7 8 8 10 15 18 16 10 11 9 7 8 9 9
14 13 13 13 12 12 11 12 12 12 11 10 9 8 8 9 9 8 6 5 3 3 5 6 6 7 6 7 8 8 9 5 13 16 18 17 18 10 8 9 9 10 10 7 2 3 1 3 6 9 5 11 10 8 9 8 5 4 2 3 3 4 2 2 3 3 3 3 3 4 5 6 7 7 8 10 11 10 12 9 6 6 8 9 9
15 14 13 14 13 12 10 11 11 11 11 10 10 10 10 9 8 7 7 6 3 2 3 4 6 4 6 6 7 9 8 6 10 16 16 17 17 13 7 9 7 6 3 3 4 4 2 4 5 9 15 11 8 9 8 7 1 1 1 2 1 1 2 3 4 6 4 4 5 5 6 6 5 5 6 5 5 3 4 2 3 4 4 5 7
14 14 14 13 14 14 13 12 11 11 11 11 10 10 9 9 9 9 8 6 6 5 4 3 2 2 2 2 0 2 4 8 9 11 16 16 17 16 7 3 6 4 4 1 4 3 2 2 7 11 13 12 10 9 9 7 3 2 2 6 3 2 2 3 4 4 4 4 4 4 5 5 4 5 6 6 6 4 5 5 6 6 7 7 7
15 15 14 14 13 13 13 13 11 10 10 10 10 11 9 8 7 7 6 8 8 7 5 3 3 1 2 3 4 3 3 3 12 10 12 15 15 14 8 8 9 6 6 4 6 7 9 11 9 9 12 12 11 9 8 7 4 3 8 5 4 3 4 4 4 4 3 4 5 6 5 6 5 4 4 4 5 4 6 6 6 7 7 8 8
15 15 14 13 13 12 12 12 10 9 11 9 9 9 9 7 8 7 8 7 7 6 5 4 3 4 6 5 4 5 4 3 9 14 12 13 12 13 11 10 10 6 7 7 7 8 7 6 5 11 11 11 10 9 8 6 3 7 6 6 6 5 4 3 4 5 5 5 5 6 5 3 4 4 3 4 4 4 5 7 7 7 7 7 8
14 14 13 12 11 11 10 9 9 8 8 8 8 9 8 9 9 8 8 7 6 6 5 5 5 6 7 6 5 5 5 4 4 6 12 13 14 14 12 12 12 12 9 9 6 2 5 11 13 11 11 10 10 7 6 7 7 9 8 8 8 3 4 4 4 3 3 4 5 2 3 3 3 4 2 3 5 7 6 6 7 7 7 8 8
13 14 13 12 12 12 12 11 9 9 9 6 7 7 7 8 8 8 7 7 6 7 6 6 7 7 6 6 5 7 6 5 5 6 6 11 13 14 13 8 6 5 8 8 11 11 12 13 13 12 10 9 6 5 6 7 10 12 11 8 4 4 4 4 5 5 6 4 3 3 3 4 5 1 2 4 5 6 6 6 6 6 5 5 7
14 13 13 13 11 11 11 9 9 9 7 7 6 6 7 7 8 7 6 6 6 6 6 7 7 7 6 5 6 7 6 5 5 5 6 6 4 4 5 6 6 7 6 5 7 7 9 8 7 8 6 12 10 5 5 8 6 4 4 5 5 6 6 5 4 5 5 5 4 4 4 3 2 2 3 4 6 5 4 5 6 6 5 6 7
13 13 14 12 10 10 9 11 11 8 7 5 6 8 8 8 7 6 6 6 7 6 6 7 7 6 6 5 6 7 6 6 6 7 6 6 6 6 6 5 5 5 5 5 5 6 5 5 6 5 4 4 3 4 5 5 6 6 6 6 7 8 7 6 6 5 5 5 5 4 2 1 1 2 3 4 5 5 4 5 5 6 6 6 7
13 14 13 12 11 9 10 10 9 9 9 9 8 8 6 3 5 7 7 5 2 3 7 6 6 6 6 6 7 7 8 8 8 8 8 8 8 9 8 8 6 5 5 9 7 6 5 5 5 5 5 6 6 7 7 7 7 7 7 6 5 3 5 6 5 5 5 5 5 5 2 1 2 3 4 5 5 5 5 5 4 6 7 6 8
14 13 12 12 12 11 10 11 11 10 9 7 7 8 14 15 10 6 5 6 6 5 5 3 3 4 5 4 2 7 8 6 13 14 13 12 9 9 6 8 7 7 8 11 7 6 6 6 6 6 7 8 9 6 5 5 6 7 6 7 5 4 3 3 4 1 2 3 4 3 3 3 3 4 3 5 6 6 5 5 6 7 6 6 7
10 11 11 10 10 9 10 10 10 9 9 8 7 8 8 10 15 14 10 4 7 11 10 7 8 8 7 5 5 10 14 15 16 14 14 13 12 11 11 12 12 10 10 7 6 7 6 7 8 9 8 6 4 4 2 2 2 2 2 1 3 4 3 1 5 2 3 3 2 2 2 3 4 3 4 5 5 5 5 5 5 6 6 7 7
10 10 10 9 8 7 8 9 9 9 9 8 9 9 9 8 7 11 11 10 11 12 13 13 11 11 15 11 8 5 8 14 16 15 14 14 13 12 10 11 10 10 11 9 8 7 4 3 3 3 3 5 5 3 2 3 1 2 0 1 1 1 2 5 2 3 1 1 1 2 3 4 4 4 5 5 3 5 5 5 5 6 6 6 6
10 12 11 9 7 8 8 7 7 8 9 9 8 8 9 8 8 6 6 9 11 13 14 15 14 12 11 10 12 12 11 11 14 14 14 14 14 12 11 11 10 8 8 5 4 4 3 4 4 3 4 5 3 3 3 4 2 2 3 3 3 2 3 4 0 2 1 2 1 2 3 4 4 3 3 4 4 5 6 6 5 6 6 6 5
12 11 10 11 9 8 8 8 8 7 7 6 7 8 8 8 8 8 7 5 5 8 12 16 15 13 14 12 13 14 13 13 13 13 13 13 14 13 12 7 7 6 4 4 4 4 3 3 3 4 4 3 3 5 5 5 4 4 4 4 3 3 3 4 2 1 2 3 4 4 4 4 4 5 5 5 5 5 5 5 6 6 5 5 7
10 13 19 13 10 9 9 9 8 8 8 6 6 6 7 8 8 8 7 7 7 6 5 5 11 14 9 8 9 10 12 12 12 12 12 12 12 13 12 8 5 2 1 1 1 2 2 3 3 3 2 4 5 4 3 3 3 2 1 2 2 3 3 4 4 4 6 6 4 3 3 5 5 5 5 5 5 5 5 5 5 5 5 7 7
11 10 10 12 10 9 9 8 7 7 7 7 7 7 7 7 7 7 7 7 7 7 6 5 5 8 13 12 10 9 10 10 11 11 12 11 13 10 6 4 4 3 2 2 2 3 3 2 4 3 4 4 4 3 3 3 2 1 2 2 2 4 4 2 5 5 4 4 5 5 5 5 6 5 4 4 5 5 5 6 5 5 6 7 6
9 10 9 8 8 7 7 7 7 7 6 7 6 6 6 5 6 7 7 7 7 7 7 6 6 5 6 6 9 10 9 9 8 8 6 5 2 3 3 4 4 4 4 4 4 4 4 3 1 3 3 3 3 2 1 1 1 2 1 4 3 2 2 2 1 2 4 3 4 4 4 5 6 4 4 5 4 5 5 5 5 6 7 9 8
7 7 6 8 8 8 6 6 7 8 6 4 5 6 7 8 8 7 6 6 9 8 7 6 6 6 6 5 5 4 6 8 9 7 4 2 2 3 3 3 4 5 6 5 5 4 3 3 2 2 1 1 1 1 2 2 2 4 3 1 2 3 4 1 0 2 2 3 4 4 6 5 3 4 4 4 5 5 5 5 6 7 7 8 6
7 12 15 14 9 6 6 6 5 6 5 5 5 4 4 4 5 4 6 8 8 7 7 6 6 6 6 7 6 7 8 6 6 6 5 5 4 4 4 4 4 3 3 4 5 3 2 2 3 3 1 0 1 1 1 1 2 2 2 3 5 1 4 2 3 3 4 5 5 4 2 4 4 4 4 4 5 5 6 7 7 6 7 7 7
9 7 8 10 5 6 5 5 5 4 4 5 6 5 5 5 5 4 7 7 7 7 6 6 6 7 8 8 8 8 6 6 6 6 6 5 5 5 4 4 4 4 2 5 6 5 3 3 4 3 3 2 1 1 1 0 0 2 3 2 4 5 5 3 4 3 3 2 2 2 2 3 4 4 3 4 5 6 7 6 6 6 6 7 7
6 7 5 4 7 6 5 4 3 4 4 3 4 4 3 3 3 4 5 6 6 6 7 6 6 7 7 9 12 10 6 6 6 6 6 6 5 5 5 5 4 5 2 2 0 3 2 2 4 3 3 4 4 2 1 0 2 0 7 1 4 1 3 3 3 4 3 3 2 2 2 2 3 4 4 5 6 7 5 5 6 6 6 6 8
5 4 4 5 7 5 4 4 3 3 3 4 3 4 4 4 4 5 6 7 6 6 7 6 6 7 10 16 15 13 6 5 6 6 7 6 6 5 6 6 6 4 3 3 3 3 3 3 2 3 2 2 2 2 2 2 3 5 1 4 1 1 3 4 3 2 2 2 2 2 2 3 3 3 5 5 5 4 5 5 6 6 5 7 7
5 4 3 3 3 4 3 4 5 4 4 4 3 3 4 4 4 4 5 5 5 6 5 6 7 7 8 14 15 14 6 4 5 7 7 8 8 8 8 5 3 2 2 2 3 3 3 1 1 3 4 3 2 3 1 2 4 3 3 3 4 3 3 3 3 3 3 3 2 4 4 3 3 4 4 5 5 4 5 6 6 5 6 7 7
4 4 3 3 4 5 5 5 4 4 4 5 5 4 4 4 4 5 5 6 6 5 7 7 7 7 6 7 7 7 5 4 5 4 4 4 5 5 4 3 4 3 3 2 3 2 2 2 2 2 3 3 2 2 1 3 1 2 4 4 2 3 3 3 3 3 3 3 4 3 4 3 4 4 4 4 4 5 6 5 5 5 6 6 7
4 4 4 5 5 5 5 4 5 5 6 5 4 4 3 3 4 3 3 3 3 2 6 8 7 6 6 6 6 6 6 6 5 4 4 4 4 4 3 3 2 1 2 3 4 3 2 1 1 2 2 3 2 2 1 2 5 4 3 4 3 3 3 2 3 4 3 3 3 3 4 3 4 4 4 5 5 5 5 5 6 6 6 6 6
4 4 5 5 5 4 5 5 5 5 5 5 5 5 3 3 2 2 2 1 2 1 5 7 6 7 7 7 6 7 7 6 5 4 4 4 3 2 3 4 4 3 3 2 4 4 2 2 2 1 2 2 4 4 3 2 5 5 4 1 1 2 4 3 4 5 5 4 4 4 4 4 5 4 7 6 4 4 5 6 5 5 5 6 7
3 3 4 5 5 5 4 5 5 5 4 4 4 3 3 2 2 2 1 2 1 3 3 5 6 6 6 5 5 5 5 4 4 4 3 2 1 2 3 5 5 5 4 2 3 4 5 4 2 1 1 2 2 3 2 2 5 4 4 4 3 1 5 4 4 3 4 5 4 4 4 5 5 5 6 5 4 5 5 6 5 5 5 6 7
4 5 3 3 4 4 4 3 3 3 3 3 3 3 2 3 3 2 3 2 0 1 1 3 4 5 6 6 6 6 5 3 3 3 2 2 3 3 3 2 4 4 2 2 2 2 2 3 3 0 2 0 3 2 5 4 4 1 3 6 6 5 5 5 3 4 3 3 3 4 5 5 5 6 6 5 4 5 5 4 5 5 5 6 7
3 3 5 4 3 3 3 4 4 4 4 5 4 5 5 2 4 3 4 4 3 3 2 2 3 4 6 8 10 9 8 5 5 4 4 3 2 2 2 1 3 3 3 3 3 3 3 2 1 2 2 2 3 1 1 3 3 2 6 5 7 10 10 8 5 3 2 2 3 4 4 5 6 6 6 5 5 4 4 4 4 5 6 7 7
2 2 3 5 5 4 4 3 4 4 3 3 2 2 2 3 4 2 2 4 6 5 5 5 4 3 3 1 1 1 2 6 7 6 5 4 5 5 5 4 4 4 3 3 3 3 4 4 3 2 2 1 1 2 3 2 3 6 7 6 9 11 10 9 7 4 2 2 3 4 4 5 6 6 5 5 5 4 4 4 5 6 6 7 7
3 3 4 4 3 3 4 4 3 1 4 5 5 3 4 3 2 3 2 1 2 1 2 3 5 5 4 3 3 1 1 1 2 2 1 2 5 7 6 6 6 4 5 5 3 3 4 3 4 4 3 3 2 1 0 1 5 9 10 13 11 9 8 6 4 4 3 2 2 3 4 5 5 6 6 5 4 4 4 5 6 6 6 6 5
Wind_Direction
187 184 181 183 181 182 183 184 188 187 186 180 178 186 191 185 185 192 180 187 181 181 178 177 175 179 181 182 182 180 182 187 179 183 189 191 193 195 190 197 191 184 189 194 202 206 190 189 197 198 193 201 200 195 226 237 226 215 203 172 188 201 199 206 248 277 274 222 250 269 276 280 276 261 286 270 239 218 220 232 243 246 244 245 253
188 182 182 182 184 183 185 185 187 188 188 183 185 186 191 186 184 190 185 185 181 184 179 179 178 177 182 182 184 179 183 186 178 180 182 186 198 196 208 201 195 193 188 189 191 196 212 205 204 207 193 215 215 214 202 208 230 240 180 174 183 200 178 208 224 249 282 302 287 284 286 275 278 280 287 295 285 256 252 247 253 264 267 268 262
185 178 181 183 184 181 182 185 186 188 189 187 192 192 190 188 187 194 189 185 182 184 181 184 180 178 181 182 185 181 183 186 182 178 181 185 195 202 210 216 197 191 185 182 185 185 198 208 210 202 194 203 210 210 206 210 241 319 342 306 256 211 226 226 248 263 277 282 287 292 293 299 289 289 284 277 280 261 245 238 243 246 250 255 260
185 178 181 185 183 180 182 183 189 191 193 192 193 195 193 192 191 193 194 188 184 183 181 184 179 179 182 183 187 183 182 186 187 183 180 183 193 199 210 216 218 209 197 187 187 189 198 204 206 206 195 202 199 194 190 190 194 211 235 227 216 222 217 222 217 232 246 275 276 277 285 291 282 278 277 272 270 267 246 240 231 237 244 249 256
184 182 184 186 185 182 183 185 190 192 193 192 194 195 195 194 192 194 194 196 186 182 181 184 181 182 185 184 186 185 183 186 187 185 183 184 189 199 206 210 206 206 206 201 197 199 204 207 203 199 194 200 200 210 189 198 201 202 213 222 214 215 224 217 233 233 247 263 275 268 273 273 275 271 264 278 275 267 257 247 240 239 240 239 251
185 183 184 186 183 183 185 187 190 195 194 194 193 195 196 194 191 192 194 195 184 185 181 185 184 185 188 186 186 185 182 185 186 187 187 185 189 197 204 208 199 195 201 205 207 201 201 204 203 193 193 193 194 196 196 206 200 201 215 208 208 219 225 230 229 237 237 244 255 273 253 273 278 275 269 257 264 274 276 267 256 246 242 245 243
183 183 184 187 183 186 186 188 190 195 194 193 193 194 197 197 195 193 192 193 190 190 186 186 185 185 188 187 186 186 182 184 185 188 190 186 190 194 200 205 203 200 203 209 210 206 208 209 208 203 200 198 205 204 185 194 201 222 216 214 193 93 280 281 260 251 250 262 262 257 268 258 263 282 270 260 258 255 269 279 271 257 242 237 256
184 180 182 186 184 185 189 190 190 194 193 190 192 196 198 198 194 187 188 193 194 192 188 186 185 186 187 189 187 183 183 183 184 188 189 188 187 194 197 200 203 203 207 210 211 209 203 208 213 203 202 200 200 199 191 197 201 214 205 163 161 217 236 238 247 251 256 262 260 271 262 272 268 260 275 272 273 272 257 268 282 283 277 262 260
183 181 179 183 184 186 190 192 192 191 189 187 193 196 197 199 194 182 184 192 196 193 189 185 182 185 188 189 186 182 187 187 186 186 188 188 189 192 196 199 198 202 207 210 211 212 206 206 209 208 196 193 191 197 194 193 201 204 186 176 181 213 260 269 270 264 257 256 270 266 271 271 267 281 287 286 283 283 277 269 271 274 275 283 271
182 182 180 181 181 184 189 190 192 191 188 189 194 196 196 195 194 186 183 188 191 193 182 178 183 184 187 188 183 185 190 193 189 186 185 185 187 190 194 199 200 202 205 209 211 210 215 216 212 216 182 175 190 194 197 166 174 178 167 174 199 219 235 257 260 262 265 265 267 273 278 278 282 283 291 291 297 296 297 306 300 294 293 279 270
180 183 181 179 177 181 184 190 189 190 191 193 194 196 197 195 193 186 183 186 190 192 179 175 183 186 187 184 183 190 192 194 184 182 185 186 183 189 191 195 200 204 204 204 212 207 208 210 214 199 167 148 145 139 134 144 162 181 205 216 217 221 242 243 252 254 257 261 267 274 269 270 272 280 281 292 299 317 315 306 295 292 288 298 294
180 182 176 174 175 180 184 185 186 189 189 192 193 195 195 194 194 191 185 182 187 186 184 176 176 178 185 186 188 191 195 185 177 183 183 183 186 189 198 198 199 204 207 205 206 214 213 209 209 175 171 163 166 153 157 176 186 198 216 238 239 229 222 227 243 250 249 255 253 254 262 263 274 276 287 304 307 297 292 296 293 299 302 298 295
177 178 173 173 176 179 179 181 182 183 186 187 187 187 188 191 191 190 195 182 174 184 179 171 177 178 183 189 194 191 194 173 176 177 177 178 187 196 199 208 204 203 207 207 204 202 202 217 209 153 173 162 159 162 169 180 188 209 230 239 245 240 234 229 226 229 242 247 257 258 252 266 269 271 280 280 280 283 289 293 301 300 296 291 286
175 175 170 172 172 172 172 174 176 176 174 173 173 175 179 182 184 171 158 154 170 175 180 176 177 184 185 190 194 192 196 162 171 172 177 187 191 199 215 208 210 209 205 206 209 204 195 173 159 168 156 162 176 176 179 181 193 212 207 203 222 239 235 229 226 225 225 233 244 256 255 261 267 261 260 258 260 270 291 284 295 290 282 276 281
170 170 168 167 164 164 165 164 167 163 163 164 166 169 174 170 173 165 165 168 174 174 177 182 179 187 189 187 192 189 180 160 170 177 182 186 191 200 220 222 227 222 208 205 204 203 178 173 173 168 167 172 180 180 181 194 189 204 208 216 223 234 243 245 229 212 215 216 225 236 250 248 255 258 246 235 277 275 259 269 268 266 266 268 268
161 162 162 161 157 157 158 158 157 153 154 157 163 168 168 166 172 170 167 167 168 165 171 185 188 191 189 184 194 191 166 163 170 175 178 186 193 189 212 223 232 242 246 231 213 166 169 169 171 168 180 171 183 193 199 184 189 205 216 219 229 234 242 237 237 252 253 211 206 220 232 253 232 220 277 294 274 266 263 257 253 256 269 277 273
159 157 155 151 153 155 154 154 150 152 152 153 162 167 169 171 174 172 176 174 173 172 181 191 187 194 193 188 189 188 158 169 172 181 181 187 186 196 212 220 229 237 252 242 228 178 176 179 174 167 152 153 183 198 195 182 201 212 220 223 226 240 249 248 238 237 243 253 262 271 274 273 272 284 268 255 249 250 262 264 257 256 260 274 275
158 153 152 153 154 155 155 153 152 157 160 166 166 172 179 182 179 166 178 187 196 194 192 191 188 192 197 192 190 182 182 178 181 184 183 189 187 192 202 208 221 228 236 239 228 202 182 180 166 148 158 185 191 189 197 193 210 224 230 236 236 239 244 256 267 251 227 241 254 256 266 280 274 258 250 247 248 243 206 237 249 259 263 264 284
157 155 155 154 154 153 155 156 159 163 164 167 167 169 178 176 182 175 189 204 205 187 180 182 191 174 196 203 196 192 197 180 186 183 188 185 185 190 190 198 211 221 223 229 224 206 158 175 165 129 98 124 199 205 192 190 216 231 235 232 238 249 268 306 305 312 348 328 296 287 269 255 254 253 253 251 248 244 227 239 253 256 269 272 275
155 155 155 151 153 155 161 158 160 162 157 162 165 156 158 170 176 182 187 185 183 181 161 179 182 189 187 204 197 200 211 145 186 185 184 182 185 184 191 199 211 218 220 219 63 315 195 97 71 93 197 219 197 182 186 196 219 228 229 225 227 240 28 348 318 317 303 286 281 285 288 286 274 264 260 252 240 233 236 240 245 250 258 263 269
151 153 149 155 153 152 154 158 160 156 155 158 161 157 164 164 157 162 174 179 156 116 171 187 177 174 187 193 210 192 208 168 183 181 178 182 188 192 192 203 209 205 105 46 230 192 180 173 160 181 213 206 190 182 182 188 177 264 173 243 263 70 316 295 299 307 301 292 280 270 264 256 253 258 268 271 282 320 7 320 234 246 278 318 325
148 146 149 153 155 159 159 156 160 156 156 160 162 152 155 154 157 159 172 161 135 124 101 84 97 149 152 193 75 150 177 163 164 185 178 180 188 194 200 126 78 55 51 133 133 134 206 198 230 210 194 187 180 166 158 156 151 206 99 106 114 20 335 301 293 270 260 265 285 290 283 278 276 280 282 295 320 344 340 335 342 349 336 327 316
143 142 145 148 151 152 152 154 157 158 159 163 156 148 148 151 145 146 133 116 121 119 119 117 116 42 291 217 176 185 223 170 156 173 191 187 189 186 106 102 124 142 166 206 181 172 202 221 213 162 164 164 155 153 148 142 157 144 128 139 157 209 247 255 257 267 275 280 271 266 266 260 264 279 299 330 338 356 1 344 333 320 306 294 281
136 136 139 142 145 146 145 151 154 154 156 152 141 134 141 138 127 118 112 117 118 118 119 118 135 213 227 212 189 193 157 98 160 168 172 184 184 176 145 151 168 187 178 204 213 212 210 204 136 143 141 139 138 144 148 174 157 135 151 174 196 213 234 244 236 233 241 245 255 254 254 283 300 319 333 352 359 354 330 313 300 290 279 274 271
130 132 133 134 133 135 139 143 140 142 141 141 129 131 135 125 119 118 122 123 121 130 148 170 198 214 218 193 182 144 133 122 114 160 168 163 171 173 169 171 192 195 209 224 208 206 87 105 115 123 129 128 128 132 167 209 185 177 181 197 207 229 212 224 241 255 261 257 254 294 317 311 324 305 331 360 335 320 304 286 278 272 268 264 266
127 128 128 129 134 139 145 141 133 128 134 132 124 121 120 122 122 124 125 128 139 157 169 189 203 211 207 202 168 153 140 126 129 141 168 170 182 186 180 181 182 97 63 73 77 88 99 107 111 116 120 132 143 188 200 194 205 204 208 200 213 227 229 224 229 219 232 236 238 239 266 275 265 272 355 324 302 282 275 276 279 281 283 293 298
121 123 127 131 132 134 131 126 126 122 103 97 106 112 111 117 123 126 133 147 164 173 185 199 202 204 202 194 148 143 145 141 152 163 171 174 168 141 120 96 107 125 110 107 101 99 120 127 143 157 167 186 203 202 191 173 178 193 201 201 218 223 226 224 218 232 236 230 236 248 232 260 338 10 326 299 281 276 271 282 287 288 295 291 291
118 119 121 121 123 123 121 118 120 117 93 109 134 136 125 121 132 142 161 176 175 177 194 208 208 202 190 164 154 159 154 158 176 178 180 168 156 146 157 152 164 177 147 136 134 129 130 129 143 171 165 187 217 203 201 190 205 192 201 209 211 220 224 234 237 236 248 244 243 244 271 247 303 304 312 296 286 284 282 282 281 289 291 294 289
114 118 118 119 114 111 119 127 111 87 81 72 50 30 30 57 99 70 33 27 8 197 204 194 200 210 192 155 163 169 176 180 191 183 170 167 165 158 172 183 177 168 156 142 145 145 132 159 179 186 189 200 210 213 201 198 210 204 205 215 218 201 193 200 218 219 207 211 239 245 222 11 329 341 300 291 285 287 279 280 280 283 285 276 276
120 120 123 123 126 129 137 133 111 110 101 96 92 77 65 53 35 74 86 47 49 27 46 195 225 205 168 126 152 191 193 184 139 150 143 140 133 131 147 161 171 159 161 160 176 166 191 190 198 201 203 204 212 227 239 200 195 195 193 202 202 221 241 228 242 291 14 26 40 29 7 339 308 286 297 294 290 278 284 291 284 278 279 283 286
121 123 127 133 132 136 139 125 122 118 118 118 110 112 95 56 47 44 49 43 38 50 52 41 46 89 120 128 44 59 101 112 124 128 128 126 126 129 140 152 166 173 166 158 211 201 195 207 210 212 214 247 271 256 208 199 249 246 245 185 190 211 221 65 62 62 60 29 8 348 333 309 294 310 297 280 280 292 292 280 277 286 285 290 292
125 127 121 107 106 120 117 118 122 121 123 130 125 119 106 103 71 38 38 41 45 51 50 45 46 86 108 114 113 49 80 111 125 130 130 129 130 137 144 157 164 159 180 175 190 217 242 279 272 270 274 266 266 280 284 271 231 224 306 341 352 6 8 98 197 92 121 91 8 314 303 319 318 289 273 278 295 299 296 300 297 294 295 293 294
120 109 107 117 116 100 115 117 121 129 136 139 132 123 120 120 114 114 54 52 62 60 51 49 48 46 70 99 119 136 145 140 131 134 138 136 130 126 122 125 133 143 142 166 207 211 225 242 267 280 265 251 232 215 226 250 309 15 40 46 4 20 53 138 243 109 348 134 225 279 282 265 263 282 298 322 315 300 296 293 298 301 298 302 313
109 122 133 128 116 117 123 128 130 129 128 137 144 140 142 140 142 139 134 139 100 64 55 46 38 49 54 63 104 119 132 138 132 127 127 128 130 128 116 101 80 58 90 174 196 224 241 254 270 275 287 317 1 20 30 36 55 31 24 4 1 340 338 142 191 110 37 18 8 334 327 323 329 331 319 296 283 285 296 307 308 303 312 319 314
117 127 128 129 131 140 142 147 143 142 146 154 151 155 150 149 143 147 149 150 148 136 134 72 42 37 47 56 65 107 124 127 128 131 130 133 130 130 118 113 115 120 136 282 353 311 293 280 282 298 1 19 55 57 45 32 46 23 336 355 343 306 328 29 28 11 25 12 342 323 345 339 319 292 280 286 298 306 312 309 305 310 320 317 308
124 130 135 136 135 138 145 143 144 141 152 155 174 165 153 148 156 166 160 159 147 135 117 88 81 68 68 61 64 80 96 112 125 132 141 145 157 153 137 145 136 147 167 178 219 224 250 292 289 326 23 51 63 56 41 14 19 335 329 307 324 8 350 21 35 33 34 9 337 334 325 298 282 284 298 300 312 315 314 308 312 324 315 307 305
129 131 134 124 123 121 113 119 126 144 157 160 160 141 141 157 158 165 170 164 134 126 120 130 130 106 86 76 76 73 81 94 103 109 116 134 234 269 169 159 175 174 193 184 192 207 204 211 89 65 57 32 24 355 7 10 335 318 351 74 80 87 59 61 34 6 0 325 294 287 281 276 274 293 312 315 315 316 309 314 325 317 306 303 304
111 114 107 96 101 101 102 100 114 123 138 147 132 150 165 169 177 175 161 133 120 124 131 151 153 142 139 126 150 137 112 116 111 90 87 79 169 217 231 228 214 196 178 181 184 189 179 129 121 96 116 208 303 325 5 319 1 11 359 352 341 95 110 70 92 219 236 246 262 262 252 260 311 324 323 319 319 310 315 327 319 307 307 309 314
71 81 88 89 94 99 104 115 133 147 152 153 151 165 158 160 148 187 127 117 127 128 136 144 158 149 133 141 137 141 143 146 160 160 163 180 192 212 227 238 253 249 172 164 158 161 173 134 120 116 77 109 181 105 348 322 14 335 348 339 281 170 80 4 293 250 219 224 230 243 335 342 312 310 326 323 316 324 327 310 300 309 313 317 314
103 105 106 112 114 111 122 142 161 148 154 160 156 160 157 175 172 160 118 134 133 136 138 154 158 142 145 153 152 166 164 155 162 158 168 178 195 209 217 242 250 262 224 148 165 169 170 144 124 141 162 169 182 224 207 127 19 271 297 293 30 26 15 336 292 274 269 288 338 347 306 302 322 342 338 319 319 313 295 296 307 312 314 311 314
105 113 120 125 126 129 137 155 160 154 152 161 135 154 129 114 114 105 114 126 138 143 153 161 150 139 156 163 168 172 156 162 166 169 173 185 188 202 208 225 234 242 169 178 217 126 148 140 147 170 166 180 184 186 88 52 224 238 270 214 78 47 258 255 270 287 293 281 282 336 312 319 3 358 315 305 289 283 292 311 315 315 313 317 322
115 125 121 118 135 144 147 173 134 112 95 96 110 125 141 145 143 144 143 144 156 157 159 160 141 143 151 160 172 197 202 171 180 181 175 187 192 199 205 214 220 231 165 174 143 124 145 166 187 167 165 63 53 55 41 323 346 291 15 67 48 8 286 268 272 298 327 1 331 288 353 11 332 288 286 288 299 305 320 321 312 310 320 325 318
129 140 122 132 156 145 141 102 102 109 108 120 111 112 125 125 130 121 140 149 159 151 155 146 138 140 158 170 178 191 218 216 208 189 177 184 190 192 200 200 202 169 139 132 127 137 141 135 145 115 114 143 88 58 4 263 264 54 41 41 30 317 308 306 293 308 322 311 351 26 7 323 309 307 314 301 305 327 327 307 307 324 327 320 317
124 122 118 126 87 78 88 113 130 135 135 111 121 128 144 153 152 155 161 166 170 167 128 132 137 144 148 172 175 190 226 231 253 234 199 188 206 195 189 169 195 159 150 141 128 132 127 160 197 153 146 154 151 170 121 264 140 95 66 49 334 311 313 331 321 295 320 14 9 351 323 319 314 312 306 315 329 324 308 310 322 326 322 320 324
124 135 129 119 122 131 133 131 114 104 108 123 140 141 149 159 155 166 155 168 164 172 121 133 132 130 140 159 176 196 212 230 235 249 242 212 187 175 170 161 180 153 150 159 145 137 177 151 125 101 136 137 142 156 161 272 121 130 90 35 354 298 296 305 11 31 26 354 342 331 328 324 321 316 313 317 314 307 311 326 323 316 322 326 322
135 138 137 140 133 120 119 118 121 134 148 152 149 150 164 146 144 151 178 151 140 157 125 136 139 144 153 168 181 194 208 220 226 224 233 226 200 157 157 158 166 166 194 206 139 143 154 199 137 202 238 158 176 154 191 264 71 75 100 117 19 318 309 353 16 25 22 18 346 337 324 324 321 318 305 296 309 324 316 313 305 318 324 323 315
119 133 127 133 133 139 138 138 160 170 179 158 155 154 148 152 136 132 118 51 128 169 197 141 156 164 174 183 187 198 197 201 217 227 214 219 208 186 190 172 164 153 189 190 127 153 167 187 185 205 115 32 1 131 217 199 139 116 123 164 185 60 54 50 49 21 21 7 352 338 335 328 310 294 300 313 324 311 315 304 315 328 331 320 307
116 118 124 132 136 142 140 169 137 146 144 129 144 151 155 162 141 176 143 108 294 314 265 209 178 158 168 184 190 188 187 196 198 217 232 220 206 191 210 157 143 157 162 151 145 190 184 161 132 232 28 119 39 19 66 65 84 91 73 67 71 87 71 55 55 54 43 4 337 315 303 292 292 295 301 311 305 300 300 319 330 331 322 310 302
170 186 142 159 172 158 179 164 153 193 168 183 178 186 170 185 127 182 201 162 158 190 235 270 253 202 180 182 184 189 171 175 180 193 203 201 117 73 37 101 133 145 165 189 201 174 129 94 114 149 185 100 129 247 108 102 76 90 92 96 97 97 85 75 74 55 7 299 287 280 269 272 283 297 299 295 295 296 308 329 332 319 304 301 297
153 102 150 179 177 152 189 160 179 214 136 87 101 115 122 188 208 187 165 183 192 202 187 186 201 204 252 325 358 293 165 165 177 194 192 165 157 152 170 168 179 179 184 211 214 184 163 165 144 132 95 64 21 99 105 152 180 105 103 112 117 108 108 103 94 68 32 330 323 314 312 302 295 287 290 295 295 313 336 335 317 300 294 298 299
155 180 176 178 158 166 196 153 219 132 109 146 164 176 171 217 210 188 224 61 56 23 18 11 6 7 354 351 333 357 123 302 322 344 10 193 158 155 162 163 171 182 197 212 218 161 162 159 171 151 143 160 190 296 168 210 91 118 129 134 134 126 128 123 124 110 95 10 296 293 285 290 291 291 289 301 323 324 324 310 292 289 297 297 303